Location: Brno
(49.2000°N, 16.6330°E)
Time: 14:05:08
(UTC+02:00)

ISS - Pass Details

Date: 23 April 2026
Orbit: 414 x 424 km, 51.6° (Epoch: 18 May)

Event Time Altitude Azimuth Distance (km) Brightness Sun altitude
Exits shadow 04:43:19 15° 230° (SW) 1,219 -2.1 -10.1°
Maximum altitude 04:45:55 57° 154° (SSE) 499 -3.4 -9.7°
Drops below altitude 10° 04:49:15 10° 74° (ENE) 1,508 0.5 -9.3°
Sets 04:51:23 0° 70° (ENE) 2,378 2.0 -9.0°
